Weather History for KDEW - February, 2014

Change the Weather History Date:

Friday, February 14, 2014

  Actual Average Record
Temperature  
Mean Temperature 37 °F 30 °F  
Max Temperature 44 °F 39 °F 49 °F (2015)
Min Temperature 29 °F 21 °F 9 °F (2008)
Degree Days  
Heating Degree Days 28 35  
Month to date heating degree days 623 498  
Since 1 July heating degree days 4954 4894  
Cooling Degree Days 0 0  
Month to date cooling degree days 0 0  
Year to date cooling degree days 0 0  
Moisture  
Dew Point 32 °F    
Average Humidity 83    
Maximum Humidity 96    
Minimum Humidity 70    
Precipitation  
Precipitation 0.16 in 0.06 in 0.35 in (2007)
Month to date precipitation 0.94 0.90  
Year to date precipitation 2.62 3.53  
Sea Level Pressure  
Sea Level Pressure 29.80 in    
Wind  
Wind Speed 7 mph (SSE)    
Max Wind Speed 21 mph    
Max Gust Speed 25 mph    
Visibility 6 miles    
Events Rain , Snow    
T = Trace of Precipitation, MM = Missing Value Source: NWS Daily Summary

Daily Weather History Graph

Daily Weather History Graph

Search for Another Location

Airport or City:

Trip Planner

Search our weather history database for the weather conditions in past years. The results will help you decide how hot, cold, wet, or windy it might be!

Date:

Astronomy

Feb. 14, 2014 Rise Set
Actual Time 6:57 AM PST 5:10 PM PST
Civil Twilight 6:25 AM PST 5:42 PM PST
Nautical Twilight 5:49 AM PST 6:19 PM PST
Astronomical Twilight 5:13 AM PST 6:55 PM PST
Moon 5:23 PM PST (2/14) 6:24 AM PST (2/14)
Length of Visible Light 11h 17m
Length of Day
10h 13m
Full, 100% of the Moon is Illuminated
Feb 14
Full
Feb 14
Full
Feb 22
Last Quarter
Mar 1
New
Mar 8
First Quarter

Hourly Weather History & Observations

Time (PST) Temp. Windchill Dew Point Humidity Pressure Visibility Wind Dir Wind Speed Gust Speed Precip Events Conditions
12:53 AM 30.0 °F - 26.1 °F 85% 29.99 in 10.0 mi Calm Calm - N/A   Unknown
1:53 AM 30.0 °F 26.5 °F 26.1 °F 85% 29.97 in 10.0 mi North 3.5 mph - N/A   Clear
2:53 AM 30.9 °F 26.2 °F 27.0 °F 85% 29.93 in 10.0 mi NNE 4.6 mph - N/A   Scattered Clouds
3:53 AM 33.1 °F 26.9 °F 26.1 °F 75% 29.88 in 10.0 mi NNE 6.9 mph - N/A   Overcast
4:53 AM 33.1 °F 28.7 °F 26.1 °F 75% 29.87 in 10.0 mi North 4.6 mph - N/A   Overcast
5:53 AM 33.1 °F 30.0 °F 27.0 °F 78% 29.84 in 10.0 mi Variable 3.5 mph - N/A   Overcast
6:28 AM 35.1 °F 29.3 °F 28.0 °F 76% 29.78 in 2.5 mi East 6.9 mph - 0.00 in Snow Light Snow
6:38 AM 34.0 °F 28.0 °F 28.9 °F 82% 29.77 in 3.0 mi ENE 6.9 mph - 0.00 in Snow Light Snow
6:45 AM 34.0 °F 28.8 °F 30.0 °F 85% 29.76 in 3.0 mi ENE 5.8 mph - 0.00 in Snow Light Snow
6:53 AM 33.1 °F 26.9 °F 30.0 °F 89% 29.82 in 2.0 mi ENE 6.9 mph - 0.01 in Snow Light Snow
7:27 AM 33.1 °F 28.7 °F 30.9 °F 92% 29.75 in 1.0 mi East 4.6 mph - 0.03 in Snow Light Snow
7:38 AM 33.1 °F 27.7 °F 30.9 °F 92% 29.75 in 0.8 mi ENE 5.8 mph - 0.04 in Snow Light Snow
7:53 AM 33.1 °F 28.7 °F 30.9 °F 92% 29.80 in 0.8 mi East 4.6 mph - 0.05 in Snow Light Snow
8:18 AM 33.1 °F 28.7 °F 30.9 °F 92% 29.74 in 1.0 mi ENE 4.6 mph - 0.02 in Snow Light Snow
8:26 AM 33.1 °F 28.7 °F 30.9 °F 92% 29.74 in 0.8 mi ENE 4.6 mph - 0.03 in Snow Light Snow
8:44 AM 33.1 °F 30.0 °F 32.0 °F 96% 29.73 in 1.2 mi SE 3.5 mph - 0.04 in Snow Light Snow
8:53 AM 33.1 °F - 30.9 °F 92% 29.77 in 1.5 mi Calm Calm - 0.05 in Snow Light Snow
9:53 AM 33.1 °F - 32.0 °F 96% 29.75 in 1.2 mi Calm Calm - 0.03 in Rain Light Rain
10:03 AM 33.1 °F - 32.0 °F 96% 29.69 in 1.2 mi Calm Calm - 0.00 in   Overcast
10:23 AM 33.1 °F - 32.0 °F 96% 29.68 in 1.2 mi Calm Calm - 0.01 in   Overcast
10:42 AM 33.1 °F 28.7 °F 32.0 °F 96% 29.69 in 2.0 mi West 4.6 mph - 0.02 in   Overcast
10:53 AM 33.1 °F 28.7 °F 32.0 °F 96% 29.75 in 2.0 mi West 4.6 mph - 0.02 in   Overcast
11:11 AM 33.1 °F 30.0 °F 32.0 °F 96% 29.71 in 4.0 mi West 3.5 mph - N/A   Overcast
11:44 AM 34.0 °F 28.8 °F 32.0 °F 92% 29.70 in 9.0 mi SSE 5.8 mph - N/A   Overcast
11:53 AM 35.1 °F 28.6 °F 33.1 °F 92% 29.75 in 10.0 mi South 8.1 mph - N/A   Overcast
12:20 PM 36.0 °F 29.0 °F 34.0 °F 93% 29.70 in 10.0 mi South 9.2 mph - N/A   Overcast
12:53 PM 42.1 °F 34.2 °F 37.9 °F 85% 29.76 in 10.0 mi SW 16.1 mph - N/A   Mostly Cloudy
1:11 PM 42.1 °F 34.5 °F 36.0 °F 79% 29.71 in 10.0 mi SW 15.0 mph 24.2 mph N/A   Scattered Clouds
1:53 PM 44.1 °F 39.5 °F 37.9 °F 79% 29.77 in 10.0 mi SW 8.1 mph - N/A   Scattered Clouds
2:53 PM 44.1 °F 38.6 °F 35.1 °F 71% 29.80 in 10.0 mi WSW 10.4 mph - N/A   Mostly Cloudy
3:23 PM 42.1 °F - 35.1 °F 76% 29.77 in 10.0 mi North - - N/A   Overcast
3:37 PM 42.1 °F - 35.1 °F 76% 29.78 in 10.0 mi North - - N/A   Overcast
3:53 PM 42.1 °F - 35.1 °F 76% 29.83 in 10.0 mi North - - N/A   Overcast
4:53 PM 39.9 °F 35.8 °F 34.0 °F 79% 29.83 in 10.0 mi SSW 5.8 mph - N/A   Scattered Clouds
5:53 PM 39.0 °F 32.3 °F 33.1 °F 79% 29.84 in 10.0 mi SSW 10.4 mph - N/A   Clear
6:53 PM 39.0 °F 33.4 °F 33.1 °F 79% 29.86 in 10.0 mi South 8.1 mph - N/A   Clear
7:53 PM 37.9 °F 30.9 °F 32.0 °F 79% 29.89 in 10.0 mi South 10.4 mph - N/A   Clear
8:53 PM 37.0 °F 29.8 °F 30.9 °F 79% 29.91 in 10.0 mi South 10.4 mph - N/A   Clear
9:53 PM 34.0 °F 28.8 °F 30.9 °F 89% 29.94 in 10.0 mi SE 5.8 mph - N/A   Clear
10:53 PM 36.0 °F 29.0 °F 32.0 °F 86% 29.95 in 10.0 mi SSE 9.2 mph - N/A   Clear
11:53 PM 33.1 °F 27.7 °F 30.0 °F 89% 29.97 in 10.0 mi South 5.8 mph - N/A   Clear